• In Lithuania
  • List of Countries
  • For 7 days
  • Water Temperature
  • Satellite Maps
  • Weather Map
  • Weather Widgets
  • user-avatar
    Login

    Hourly Weather Chongaj

    Today, 13 December, Wednesday

    Time Temperature Precipitation Wind Pressure Humidity
    00:00 +23°C° 0 mm 0 mps 739 mmHg 75%
    01:00 +23°C° 0 mm 0 mps 739 mmHg 75%
    02:00 +23°C° 0 mm 0 mps 739 mmHg 77%
    03:00 +22°C° 0 mm 0 mps 739 mmHg 78%
    04:00 +22°C° 0 mm 0 mps 739 mmHg 79%
    05:00 +24°C° 0 mm 1 mps 739 mmHg 80%
    06:00 +24°C° 0 mm 1 mps 739 mmHg 80%
    07:00 +24°C° 0 mm 1 mps 740 mmHg 81%
    08:00 +26°C° 0 mm 1 mps 740 mmHg 73%
    09:00 +29°C° 0 mm 1 mps 740 mmHg 65%
    10:00 +31°C° 0 mm 1 mps 741 mmHg 57%
    11:00 +32°C° 0.1 mm 1 mps 740 mmHg 53%
    12:00 +31°C° 0.1 mm 0 mps 739 mmHg 50%
    13:00 +32°C° 0.1 mm 0 mps 739 mmHg 47%
    14:00 +32°C° 0 mm 0 mps 738 mmHg 49%
    15:00 +31°C° 0 mm 0 mps 738 mmHg 52%
    16:00 +30°C° 0 mm 0 mps 737 mmHg 55%
    17:00 +29°C° 0 mm 0 mps 737 mmHg 58%
    18:00 +27°C° 0 mm 0 mps 737 mmHg 61%
    19:00 +26°C° 0 mm 0 mps 738 mmHg 64%
    20:00 +25°C° 0 mm 0 mps 738 mmHg 67%
    21:00 +25°C° 0 mm 0 mps 738 mmHg 69%
    22:00 +24°C° 0 mm 0 mps 739 mmHg 71%
    23:00 +24°C° 0 mm 0 mps 739 mmHg 73%

    Tomorrow, 14 December, Thursday

    Time Temperature Precipitation Wind Pressure Humidity
    00:00 +23°C° 0 mm 0 mps 739 mmHg 75%
    01:00 +23°C° 0 mm 0 mps 739 mmHg 76%
    02:00 +23°C° 0 mm 0 mps 739 mmHg 77%
    03:00 +22°C° 0 mm 0 mps 738 mmHg 79%
    04:00 +22°C° 0 mm 0 mps 738 mmHg 80%
    05:00 +22°C° 0 mm 0 mps 739 mmHg 80%
    06:00 +24°C° 0 mm 1 mps 739 mmHg 80%
    07:00 +24°C° 0 mm 1 mps 740 mmHg 81%
    08:00 +27°C° 0 mm 1 mps 740 mmHg 72%
    09:00 +29°C° 0 mm 1 mps 740 mmHg 64%
    10:00 +32°C° 0 mm 1 mps 740 mmHg 55%
    11:00 +32°C° 0 mm 1 mps 740 mmHg 51%
    12:00 +33°C° 0 mm 1 mps 739 mmHg 47%
    13:00 +35°C° 0 mm 2 mps 739 mmHg 43%
    14:00 +35°C° 0 mm 2 mps 738 mmHg 44%
    15:00 +35°C° 0 mm 2 mps 737 mmHg 45%
    16:00 +34°C° 0 mm 2 mps 737 mmHg 46%
    17:00 +31°C° 0 mm 1 mps 737 mmHg 51%
    18:00 +30°C° 0 mm 1 mps 738 mmHg 56%
    19:00 +28°C° 0 mm 1 mps 738 mmHg 61%
    20:00 +27°C° 0 mm 1 mps 738 mmHg 63%
    21:00 +27°C° 0 mm 1 mps 739 mmHg 65%
    22:00 +26°C° 0 mm 1 mps 739 mmHg 67%
    23:00 +25°C° 0 mm 1 mps 739 mmHg 70%

    Day after tomorrow, 15 December, Friday

    Time Temperature Precipitation Wind Pressure Humidity
    00:00 +25°C° 0 mm 1 mps 739 mmHg 72%
    01:00 +24°C° 0 mm 1 mps 739 mmHg 75%
    02:00 +24°C° 0 mm 1 mps 739 mmHg 78%
    03:00 +23°C° 0 mm 1 mps 738 mmHg 80%
    04:00 +23°C° 0 mm 1 mps 738 mmHg 82%
    05:00 +23°C° 0 mm 1 mps 739 mmHg 83%
    06:00 +23°C° 0 mm 1 mps 739 mmHg 83%
    07:00 +23°C° 0 mm 1 mps 740 mmHg 83%
    08:00 +25°C° 0 mm 1 mps 740 mmHg 75%
    09:00 +28°C° 0 mm 1 mps 740 mmHg 66%
    10:00 +30°C° 0 mm 1 mps 741 mmHg 58%
    11:00 +31°C° 0 mm 1 mps 740 mmHg 53%
    12:00 +33°C° 0 mm 1 mps 740 mmHg 48%
    13:00 +34°C° 0 mm 1 mps 739 mmHg 44%
    14:00 +34°C° 0 mm 1 mps 738 mmHg 45%
    15:00 +33°C° 0 mm 1 mps 738 mmHg 46%
    16:00 +32°C° 0 mm 1 mps 737 mmHg 48%
    17:00 +31°C° 0 mm 1 mps 738 mmHg 52%
    18:00 +29°C° 0 mm 1 mps 738 mmHg 56%
    19:00 +28°C° 0 mm 1 mps 739 mmHg 60%
    20:00 +27°C° 0 mm 1 mps 740 mmHg 63%
    21:00 +27°C° 0 mm 1 mps 740 mmHg 65%
    22:00 +26°C° 0 mm 1 mps 741 mmHg 67%
    23:00 +26°C° 0 mm 1 mps 741 mmHg 70%

    16 December, Saturday

    Time Temperature Precipitation Wind Pressure Humidity
    00:00 +25°C° 0 mm 1 mps 740 mmHg 72%
    01:00 +25°C° 0 mm 1 mps 740 mmHg 74%
    02:00 +25°C° 0 mm 1 mps 740 mmHg 76%
    03:00 +24°C° 0 mm 1 mps 740 mmHg 78%
    04:00 +24°C° 0 mm 1 mps 740 mmHg 80%
    05:00 +24°C° 0 mm 1 mps 740 mmHg 80%
    06:00 +24°C° 0 mm 1 mps 741 mmHg 81%
    07:00 +24°C° 0 mm 1 mps 741 mmHg 81%
    08:00 +26°C° 0 mm 1 mps 742 mmHg 73%
    09:00 +27°C° 0 mm 2 mps 742 mmHg 64%
    10:00 +29°C° 0 mm 2 mps 743 mmHg 56%
    11:00 +30°C° 0 mm 2 mps 742 mmHg 52%
    12:00 +31°C° 0 mm 2 mps 741 mmHg 48%
    13:00 +34°C° 0 mm 2 mps 740 mmHg 44%
    14:00 +32°C° 0 mm 2 mps 740 mmHg 46%
    15:00 +32°C° 0 mm 2 mps 739 mmHg 48%
    16:00 +31°C° 0 mm 3 mps 739 mmHg 51%
    17:00 +30°C° 0.1 mm 2 mps 740 mmHg 55%
    18:00 +28°C° 0.1 mm 2 mps 740 mmHg 60%
    19:00 +27°C° 0.1 mm 2 mps 741 mmHg 64%
    20:00 +26°C° 0 mm 2 mps 741 mmHg 66%
    21:00 +26°C° 0 mm 3 mps 742 mmHg 68%
    22:00 +25°C° 0 mm 3 mps 743 mmHg 70%
    23:00 +24°C° 0 mm 2 mps 742 mmHg 71%

    17 December, Sunday

    Time Temperature Precipitation Wind Pressure Humidity
    00:00 +24°C° 0 mm 2 mps 742 mmHg 72%
    01:00 +23°C° 0 mm 2 mps 742 mmHg 73%
    02:00 +21°C° 0 mm 2 mps 742 mmHg 75%
    03:00 +21°C° 0 mm 2 mps 742 mmHg 76%
    04:00 +20°C° 0 mm 2 mps 741 mmHg 78%
    05:00 +20°C° 0 mm 2 mps 742 mmHg 79%
    06:00 +20°C° 0 mm 2 mps 742 mmHg 79%
    07:00 +20°C° 0 mm 2 mps 743 mmHg 80%
    08:00 +22°C° 0 mm 3 mps 743 mmHg 71%
    09:00 +26°C° 0 mm 3 mps 743 mmHg 62%
    10:00 +28°C° 0 mm 4 mps 744 mmHg 53%
    11:00 +29°C° 0 mm 4 mps 743 mmHg 50%
    12:00 +29°C° 0 mm 4 mps 742 mmHg 46%
    13:00 +30°C° 0 mm 4 mps 742 mmHg 43%
    14:00 +30°C° 0 mm 4 mps 741 mmHg 45%
    15:00 +30°C° 0 mm 4 mps 741 mmHg 46%
    16:00 +29°C° 0 mm 4 mps 740 mmHg 47%
    17:00 +28°C° 0 mm 4 mps 741 mmHg 51%
    18:00 +26°C° 0 mm 4 mps 741 mmHg 54%
    19:00 +25°C° 0 mm 4 mps 742 mmHg 57%
    20:00 +23°C° 0 mm 4 mps 742 mmHg 60%
    21:00 +22°C° 0 mm 3 mps 743 mmHg 63%
    22:00 +21°C° 0 mm 3 mps 743 mmHg 66%
    23:00 +20°C° 0 mm 3 mps 743 mmHg 68%

    18 December, Monday

    Time Temperature Precipitation Wind Pressure Humidity
    00:00 +20°C° 0 mm 3 mps 743 mmHg 70%
    01:00 +19°C° 0 mm 3 mps 742 mmHg 72%
    02:00 +19°C° 0 mm 3 mps 742 mmHg 73%
    03:00 +19°C° 0 mm 3 mps 742 mmHg 74%
    04:00 +19°C° 0 mm 3 mps 742 mmHg 75%
    05:00 +19°C° 0 mm 3 mps 742 mmHg 75%
    06:00 +19°C° 0 mm 3 mps 743 mmHg 76%
    07:00 +19°C° 0 mm 3 mps 743 mmHg 76%
    08:00 +21°C° 0 mm 3 mps 743 mmHg 70%
    09:00 +23°C° 0 mm 4 mps 744 mmHg 63%
    10:00 +26°C° 0 mm 4 mps 744 mmHg 56%
    11:00 +27°C° 0 mm 4 mps 743 mmHg 53%
    12:00 +28°C° 0 mm 4 mps 742 mmHg 49%
    13:00 +29°C° 0 mm 4 mps 742 mmHg 46%
    14:00 +29°C° 0 mm 4 mps 741 mmHg 47%
    15:00 +28°C° 0 mm 4 mps 741 mmHg 48%
    16:00 +28°C° 0 mm 4 mps 740 mmHg 49%
    17:00 +27°C° 0 mm 4 mps 741 mmHg 52%
    18:00 +25°C° 0 mm 4 mps 741 mmHg 56%
    19:00 +22°C° 0 mm 4 mps 742 mmHg 59%
    20:00 +22°C° 0 mm 4 mps 742 mmHg 61%
    21:00 +21°C° 0 mm 4 mps 742 mmHg 63%
    22:00 +20°C° 0 mm 4 mps 743 mmHg 65%
    23:00 +20°C° 0 mm 4 mps 742 mmHg 67%
    Show more